Time,TemperatureF,DewpointF,PressureIn,WindDirection,WindDirectionDegrees,WindSpeedMPH,WindSpeedGustMPH,Humidity,HourlyPrecipIn,Conditions,Clouds,dailyrainin,SoftwareType,DateUTC
2013-01-19 00:05:00,27.0,26.0,30.44,North,7,0.0,4.0,96,0.00,,,0.00,Wunderground v.1.15,2013-01-19 05:05:00,
2013-01-19 00:14:00,26.9,25.9,30.44,North,7,0.0,0.0,96,0.00,,,0.00,Wunderground v.1.15,2013-01-19 05:14:00,
2013-01-19 00:19:00,26.8,25.8,30.45,North,7,0.0,0.0,96,0.00,,,0.00,Wunderground v.1.15,2013-01-19 05:19:00,
2013-01-19 00:24:00,26.8,25.8,30.45,North,7,0.0,0.0,96,0.00,,,0.00,Wunderground v.1.15,2013-01-19 05:24:00,
2013-01-19 00:29:00,26.7,25.7,30.44,North,7,0.0,0.0,96,0.00,,,0.00,Wunderground v.1.15,2013-01-19 05:29:00,
2013-01-19 00:39:00,26.6,25.6,30.44,North,7,0.0,0.0,96,0.00,,,0.00,Wunderground v.1.15,2013-01-19 05:39:00,
2013-01-19 00:44:00,26.6,25.6,30.44,North,7,0.0,0.0,96,0.00,,,0.00,Wunderground v.1.15,2013-01-19 05:44:00,
2013-01-19 00:49:00,26.5,25.5,30.43,North,7,0.0,0.0,96,0.00,,,0.00,Wunderground v.1.15,2013-01-19 05:49:00,
2013-01-19 00:54:00,26.5,25.5,30.43,North,7,0.0,0.0,96,0.00,,,0.00,Wunderground v.1.15,2013-01-19 05:54:00,
2013-01-19 01:04:00,26.5,25.5,30.43,North,7,0.0,0.0,96,0.00,,,0.00,Wunderground v.1.15,2013-01-19 06:04:00,
2013-01-19 01:09:00,26.4,25.4,30.43,North,7,0.0,0.0,96,0.00,,,0.00,Wunderground v.1.15,2013-01-19 06:09:00,
2013-01-19 01:14:00,26.3,25.3,30.43,North,7,0.0,0.0,96,0.00,,,0.00,Wunderground v.1.15,2013-01-19 06:14:00,
2013-01-19 01:19:00,26.3,25.3,30.43,North,7,0.0,0.0,96,0.00,,,0.00,Wunderground v.1.15,2013-01-19 06:19:00,
2013-01-19 01:24:00,26.3,25.3,30.43,North,7,0.0,0.0,96,0.00,,,0.00,Wunderground v.1.15,2013-01-19 06:24:00,
2013-01-19 01:34:00,26.3,25.3,30.43,North,7,0.0,0.0,96,0.00,,,0.00,Wunderground v.1.15,2013-01-19 06:34:00,
2013-01-19 01:39:00,26.3,25.3,30.43,North,7,0.0,0.0,96,0.00,,,0.00,Wunderground v.1.15,2013-01-19 06:39:00,
2013-01-19 01:44:00,26.2,25.2,30.43,North,7,0.0,0.0,96,0.00,,,0.00,Wunderground v.1.15,2013-01-19 06:44:00,
2013-01-19 01:49:00,26.2,25.2,30.43,North,7,0.0,0.0,96,0.00,,,0.00,Wunderground v.1.15,2013-01-19 06:49:00,
2013-01-19 01:54:00,26.1,25.1,30.43,North,7,0.0,0.0,96,0.00,,,0.00,Wunderground v.1.15,2013-01-19 06:54:00,
2013-01-19 02:04:00,26.0,25.0,30.42,North,7,0.0,0.0,96,0.00,,,0.00,Wunderground v.1.15,2013-01-19 07:04:00,
2013-01-19 02:09:00,26.0,25.0,30.42,North,7,0.0,0.0,96,0.00,,,0.00,Wunderground v.1.15,2013-01-19 07:09:00,
2013-01-19 02:14:00,25.9,24.9,30.42,North,7,0.0,0.0,96,0.00,,,0.00,Wunderground v.1.15,2013-01-19 07:14:00,
2013-01-19 02:19:00,25.8,24.8,30.42,North,7,0.0,0.0,96,0.00,,,0.00,Wunderground v.1.15,2013-01-19 07:19:00,
2013-01-19 02:24:00,25.8,24.8,30.42,North,7,0.0,0.0,96,0.00,,,0.00,Wunderground v.1.15,2013-01-19 07:24:00,
2013-01-19 02:34:00,25.6,24.6,30.42,North,7,0.0,0.0,96,0.00,,,0.00,Wunderground v.1.15,2013-01-19 07:34:00,
2013-01-19 02:39:00,25.5,24.5,30.42,North,7,0.0,0.0,96,0.00,,,0.00,Wunderground v.1.15,2013-01-19 07:39:00,
2013-01-19 02:44:00,25.5,24.5,30.42,North,7,0.0,0.0,96,0.00,,,0.00,Wunderground v.1.15,2013-01-19 07:44:00,
2013-01-19 02:54:00,25.5,24.5,30.42,North,7,0.0,0.0,96,0.00,,,0.00,Wunderground v.1.15,2013-01-19 07:54:00,
2013-01-19 02:59:00,25.5,24.5,30.42,North,7,0.0,0.0,96,0.00,,,0.00,Wunderground v.1.15,2013-01-19 07:59:00,
2013-01-19 03:04:00,25.5,24.5,30.42,ENE,65,0.0,0.0,96,0.00,,,0.00,Wunderground v.1.15,2013-01-19 08:04:00,
2013-01-19 03:09:00,25.5,24.5,30.42,ENE,65,0.0,0.0,96,0.00,,,0.00,Wunderground v.1.15,2013-01-19 08:09:00,
2013-01-19 03:14:00,25.5,24.5,30.42,ENE,65,0.0,0.0,96,0.00,,,0.00,Wunderground v.1.15,2013-01-19 08:14:00,
2013-01-19 03:24:00,25.6,24.6,30.42,SSW,201,0.0,0.0,96,0.00,,,0.00,Wunderground v.1.15,2013-01-19 08:24:00,
2013-01-19 03:29:00,25.6,24.6,30.42,SSW,201,0.0,0.0,96,0.00,,,0.00,Wunderground v.1.15,2013-01-19 08:29:00,
2013-01-19 03:34:00,25.7,25.0,30.42,SSW,201,0.0,0.0,97,0.00,,,0.00,Wunderground v.1.15,2013-01-19 08:34:00,
2013-01-19 03:39:00,25.8,25.1,30.42,SE,124,0.0,0.0,97,0.00,,,0.00,Wunderground v.1.15,2013-01-19 08:39:00,
2013-01-19 03:49:00,25.9,25.2,30.42,SE,124,0.0,0.0,97,0.00,,,0.00,Wunderground v.1.15,2013-01-19 08:49:00,
2013-01-19 03:54:00,25.8,25.1,30.42,SE,124,0.0,0.0,97,0.00,,,0.00,Wunderground v.1.15,2013-01-19 08:54:00,
2013-01-19 03:59:00,25.7,25.0,30.42,SE,124,0.0,0.0,97,0.00,,,0.00,Wunderground v.1.15,2013-01-19 08:59:00,
2013-01-19 04:04:00,25.6,24.9,30.42,SE,124,0.0,0.0,97,0.00,,,0.00,Wunderground v.1.15,2013-01-19 09:04:00,
2013-01-19 04:09:00,25.6,24.6,30.42,South,188,0.0,0.0,96,0.00,,,0.00,Wunderground v.1.15,2013-01-19 09:09:00,
2013-01-19 04:19:00,25.7,25.0,30.42,South,188,0.0,1.0,97,0.00,,,0.00,Wunderground v.1.15,2013-01-19 09:19:00,
2013-01-19 04:24:00,25.8,25.1,30.42,South,188,0.0,1.0,97,0.00,,,0.00,Wunderground v.1.15,2013-01-19 09:24:00,
2013-01-19 04:29:00,25.8,25.1,30.42,SW,216,0.0,2.0,97,0.00,,,0.00,Wunderground v.1.15,2013-01-19 09:29:00,
2013-01-19 04:34:00,25.9,25.2,30.42,SW,216,0.0,2.0,97,0.00,,,0.00,Wunderground v.1.15,2013-01-19 09:34:00,
2013-01-19 04:39:00,26.0,25.3,30.42,SSW,206,0.0,0.0,97,0.00,,,0.00,Wunderground v.1.15,2013-01-19 09:39:00,
2013-01-19 04:49:00,26.0,25.3,30.42,SSW,206,0.0,0.0,97,0.00,,,0.00,Wunderground v.1.15,2013-01-19 09:49:00,
2013-01-19 04:54:00,26.0,25.3,30.42,SSW,206,0.0,0.0,97,0.00,,,0.00,Wunderground v.1.15,2013-01-19 09:54:00,
2013-01-19 04:59:00,26.0,25.3,30.41,SSW,206,0.0,0.0,97,0.00,,,0.00,Wunderground v.1.15,2013-01-19 09:59:00,
2013-01-19 05:04:00,26.0,25.3,30.41,SSW,206,0.0,0.0,97,0.00,,,0.00,Wunderground v.1.15,2013-01-19 10:04:00,
2013-01-19 05:14:00,25.9,25.2,30.41,SW,214,0.0,0.0,97,0.00,,,0.00,Wunderground v.1.15,2013-01-19 10:14:00,
2013-01-19 05:19:00,25.9,25.2,30.41,SSW,198,0.0,0.0,97,0.00,,,0.00,Wunderground v.1.15,2013-01-19 10:19:00,
2013-01-19 05:24:00,25.9,25.2,30.41,South,191,0.0,0.0,97,0.00,,,0.00,Wunderground v.1.15,2013-01-19 10:24:00,
2013-01-19 05:29:00,25.9,25.2,30.42,South,174,0.0,0.0,97,0.00,,,0.00,Wunderground v.1.15,2013-01-19 10:29:00,
2013-01-19 05:39:00,25.8,25.1,30.42,SW,219,0.0,0.0,97,0.00,,,0.00,Wunderground v.1.15,2013-01-19 10:39:00,
2013-01-19 05:44:00,25.8,25.1,30.42,NW,304,0.0,0.0,97,0.00,,,0.00,Wunderground v.1.15,2013-01-19 10:44:00,
2013-01-19 05:49:00,25.8,25.1,30.42,SSW,202,0.0,2.0,97,0.00,,,0.00,Wunderground v.1.15,2013-01-19 10:49:00,
2013-01-19 05:54:00,25.8,25.1,30.42,SSW,202,0.0,2.0,97,0.00,,,0.00,Wunderground v.1.15,2013-01-19 10:54:00,
2013-01-19 05:59:00,25.9,25.2,30.42,SSW,202,0.0,0.0,97,0.00,,,0.00,Wunderground v.1.15,2013-01-19 10:59:00,
2013-01-19 06:09:00,25.8,25.1,30.42,WSW,242,0.0,0.0,97,0.00,,,0.00,Wunderground v.1.15,2013-01-19 11:09:00,
2013-01-19 06:15:00,25.8,25.1,30.42,WSW,242,0.0,0.0,97,0.00,,,0.00,Wunderground v.1.15,2013-01-19 11:15:00,
2013-01-19 07:49:00,25.1,24.1,30.42,WSW,242,0.0,1.0,96,0.00,,,0.00,Wunderground v.1.15,2013-01-19 12:49:00,
2013-01-19 07:54:00,25.1,24.4,30.42,WSW,242,0.0,1.0,97,0.00,,,0.00,Wunderground v.1.15,2013-01-19 12:54:00,
2013-01-19 07:59:00,25.2,24.5,30.42,WSW,242,0.0,1.0,97,0.00,,,0.00,Wunderground v.1.15,2013-01-19 12:59:00,
2013-01-19 08:04:00,25.3,24.3,30.42,WSW,242,0.0,1.0,96,0.00,,,0.00,Wunderground v.1.15,2013-01-19 13:04:00,
2013-01-19 08:09:00,25.4,24.7,30.42,WSW,242,0.0,0.0,97,0.00,,,0.00,Wunderground v.1.15,2013-01-19 13:09:00,
2013-01-19 08:14:00,25.6,24.9,30.42,WSW,242,1.0,1.0,97,0.00,,,0.00,Wunderground v.1.15,2013-01-19 13:14:00,
2013-01-19 08:19:00,25.8,25.1,30.42,WSW,242,0.0,0.0,97,0.00,,,0.00,Wunderground v.1.15,2013-01-19 13:19:00,
2013-01-19 08:29:00,26.1,25.4,30.42,WSW,242,1.0,1.0,97,0.00,,,0.00,Wunderground v.1.15,2013-01-19 13:29:00,
2013-01-19 08:34:00,26.3,25.6,30.42,WSW,242,0.0,1.0,97,0.00,,,0.00,Wunderground v.1.15,2013-01-19 13:34:00,
2013-01-19 08:39:00,26.5,25.8,30.42,WSW,242,0.0,0.0,97,0.00,,,0.00,Wunderground v.1.15,2013-01-19 13:39:00,
2013-01-19 08:44:00,26.8,26.1,30.42,WSW,237,0.0,1.0,97,0.00,,,0.00,Wunderground v.1.15,2013-01-19 13:44:00,
2013-01-19 08:49:00,27.1,26.4,30.42,WSW,237,1.0,1.0,97,0.00,,,0.00,Wunderground v.1.15,2013-01-19 13:49:00,
2013-01-19 08:59:00,27.7,27.0,30.42,West,264,1.0,1.0,97,0.00,,,0.00,Wunderground v.1.15,2013-01-19 13:59:00,
2013-01-19 09:04:00,28.1,27.6,30.42,WSW,241,1.0,1.0,98,0.00,,,0.00,Wunderground v.1.15,2013-01-19 14:04:00,
2013-01-19 09:09:00,28.6,27.9,30.42,WSW,248,1.0,1.0,97,0.00,,,0.00,Wunderground v.1.15,2013-01-19 14:09:00,
2013-01-19 09:14:00,29.2,28.7,30.42,SW,226,1.0,1.0,98,0.00,,,0.00,Wunderground v.1.15,2013-01-19 14:14:00,
2013-01-19 09:19:00,29.7,29.2,30.42,SW,221,1.0,1.0,98,0.00,,,0.00,Wunderground v.1.15,2013-01-19 14:19:00,
2013-01-19 09:29:00,31.0,29.7,30.42,SW,228,2.0,2.0,95,0.00,,,0.00,Wunderground v.1.15,2013-01-19 14:29:00,
2013-01-19 09:34:00,31.9,29.6,30.42,West,271,2.0,2.0,91,0.00,,,0.00,Wunderground v.1.15,2013-01-19 14:34:00,
2013-01-19 09:39:00,32.7,29.5,30.42,WSW,239,2.0,2.0,88,0.00,,,0.00,Wunderground v.1.15,2013-01-19 14:39:00,
2013-01-19 09:44:00,33.5,29.8,30.42,West,278,2.0,2.0,86,0.00,,,0.00,Wunderground v.1.15,2013-01-19 14:44:00,
2013-01-19 09:54:00,34.7,29.8,30.42,West,263,2.0,2.0,82,0.00,,,0.00,Wunderground v.1.15,2013-01-19 14:54:00,
2013-01-19 09:59:00,35.1,31.0,30.42,West,263,2.0,2.0,85,0.00,,,0.00,Wunderground v.1.15,2013-01-19 14:59:00,
2013-01-19 10:04:00,35.3,30.1,30.41,West,263,1.0,2.0,81,0.00,,,0.00,Wunderground v.1.15,2013-01-19 15:04:00,
2013-01-19 10:09:00,35.7,30.4,30.41,West,266,1.0,2.0,81,0.00,,,0.00,Wunderground v.1.15,2013-01-19 15:09:00,
2013-01-19 10:19:00,36.3,30.4,30.41,West,269,1.0,1.0,79,0.00,,,0.00,Wunderground v.1.15,2013-01-19 15:19:00,
2013-01-19 10:24:00,36.8,30.3,30.41,SW,227,1.0,2.0,77,0.00,,,0.00,Wunderground v.1.15,2013-01-19 15:24:00,
2013-01-19 10:29:00,37.5,29.6,30.41,WSW,242,2.0,2.0,73,0.00,,,0.00,Wunderground v.1.15,2013-01-19 15:29:00,
2013-01-19 10:34:00,38.1,30.2,30.40,SW,220,3.0,3.0,73,0.00,,,0.00,Wunderground v.1.15,2013-01-19 15:34:00,
2013-01-19 10:39:00,38.5,30.9,30.40,SSW,203,2.0,3.0,74,0.00,,,0.00,Wunderground v.1.15,2013-01-19 15:39:00,
2013-01-19 10:49:00,39.3,31.0,30.39,West,267,2.0,2.0,72,0.00,,,0.00,Wunderground v.1.15,2013-01-19 15:49:00,
2013-01-19 10:54:00,39.6,31.0,30.39,WNW,288,1.0,2.0,71,0.00,,,0.00,Wunderground v.1.15,2013-01-19 15:54:00,
2013-01-19 10:59:00,40.0,30.3,30.39,West,263,1.0,2.0,68,0.00,,,0.00,Wunderground v.1.15,2013-01-19 15:59:00,
2013-01-19 11:04:00,40.5,31.5,30.38,WSW,250,2.0,2.0,70,0.00,,,0.00,Wunderground v.1.15,2013-01-19 16:04:00,
2013-01-19 11:09:00,40.7,31.0,30.38,NW,309,2.0,2.0,68,0.00,,,0.00,Wunderground v.1.15,2013-01-19 16:09:00,
2013-01-19 11:19:00,41.3,31.9,30.36,WSW,252,1.0,1.0,69,0.00,,,0.00,Wunderground v.1.15,2013-01-19 16:19:00,
2013-01-19 11:24:00,41.4,31.3,30.36,West,269,1.0,2.0,67,0.00,,,0.00,Wunderground v.1.15,2013-01-19 16:24:00,
2013-01-19 11:29:00,41.9,30.2,30.36,SSW,212,2.0,2.0,63,0.00,,,0.01,Wunderground v.1.15,2013-01-19 16:29:00,
2013-01-19 11:34:00,42.2,29.7,30.35,WSW,240,2.0,3.0,61,0.00,,,0.01,Wunderground v.1.15,2013-01-19 16:34:00,
2013-01-19 11:39:00,42.6,30.1,30.35,SSW,198,2.0,4.0,61,0.00,,,0.01,Wunderground v.1.15,2013-01-19 16:39:00,
2013-01-19 11:49:00,43.1,29.7,30.34,WSW,238,2.0,2.0,59,0.00,,,0.01,Wunderground v.1.15,2013-01-19 16:49:00,
2013-01-19 11:54:00,43.3,30.3,30.34,SW,228,1.0,4.0,60,0.00,,,0.02,Wunderground v.1.15,2013-01-19 16:54:00,
2013-01-19 11:59:00,43.6,29.4,30.34,SSW,208,2.0,3.0,57,0.00,,,0.02,Wunderground v.1.15,2013-01-19 16:59:00,
2013-01-19 12:04:00,44.0,31.4,30.32,SSW,213,1.0,3.0,61,0.00,,,0.02,Wunderground v.1.15,2013-01-19 17:04:00,
2013-01-19 12:15:00,44.5,31.5,30.31,SSW,210,2.0,2.0,60,0.00,,,0.02,Wunderground v.1.15,2013-01-19 17:15:00,
2013-01-19 12:24:00,45.1,30.8,30.31,West,276,1.0,2.0,57,0.00,,,0.03,Wunderground v.1.15,2013-01-19 17:24:00,
2013-01-19 12:29:00,45.2,32.1,30.29,West,264,1.0,1.0,60,0.00,,,0.03,Wunderground v.1.15,2013-01-19 17:29:00,
2013-01-19 12:39:00,45.7,31.3,30.29,WNW,289,2.0,2.0,57,0.04,,,0.04,Wunderground v.1.15,2013-01-19 17:39:00,
2013-01-19 12:44:00,46.4,32.0,30.29,SSW,205,2.0,2.0,57,0.04,,,0.04,Wunderground v.1.15,2013-01-19 17:44:00,
2013-01-19 12:54:00,46.9,32.0,30.28,SW,225,2.0,4.0,56,0.04,,,0.05,Wunderground v.1.15,2013-01-19 17:54:00,
2013-01-19 12:59:00,46.9,32.9,30.28,SW,231,2.0,2.0,58,0.04,,,0.05,Wunderground v.1.15,2013-01-19 17:59:00,
2013-01-19 13:04:00,46.9,32.9,30.27,SSE,159,2.0,4.0,58,0.05,,,0.06,Wunderground v.1.15,2013-01-19 18:04:00,
2013-01-19 13:09:00,46.8,33.6,30.27,SE,137,2.0,4.0,60,0.05,,,0.06,Wunderground v.1.15,2013-01-19 18:09:00,
2013-01-19 13:20:00,46.8,32.4,30.26,SSW,198,2.0,4.0,57,0.04,,,0.06,Wunderground v.1.15,2013-01-19 18:20:00,
2013-01-19 13:30:00,47.4,31.1,30.26,West,259,3.0,3.0,53,0.00,,,0.07,Wunderground v.1.15,2013-01-19 18:30:00,
2013-01-19 13:39:00,47.5,31.7,30.25,ESE,116,2.0,2.0,54,0.06,,,0.08,Wunderground v.1.15,2013-01-19 18:39:00,
2013-01-19 13:44:00,47.5,33.0,30.25,WSW,248,2.0,4.0,57,0.05,,,0.08,Wunderground v.1.15,2013-01-19 18:44:00,
2013-01-19 13:49:00,47.8,32.9,30.24,South,180,2.0,2.0,56,0.00,,,0.08,Wunderground v.1.15,2013-01-19 18:49:00,
2013-01-19 13:55:00,47.9,32.5,30.24,SSW,202,2.0,3.0,55,0.00,,,0.09,Wunderground v.1.15,2013-01-19 18:55:00,
2013-01-19 14:05:00,48.3,32.4,30.23,SSW,210,2.0,4.0,54,0.05,,,0.10,Wunderground v.1.15,2013-01-19 19:05:00,
2013-01-19 14:14:00,48.3,31.5,30.23,WSW,249,2.0,4.0,52,0.04,,,0.11,Wunderground v.1.15,2013-01-19 19:14:00,
2013-01-19 14:25:00,48.7,31.8,30.23,WSW,241,2.0,4.0,52,0.04,,,0.11,Wunderground v.1.15,2013-01-19 19:25:00,
2013-01-19 14:34:00,49.0,31.6,30.22,WSW,238,2.0,3.0,51,0.05,,,0.12,Wunderground v.1.15,2013-01-19 19:34:00,
2013-01-19 14:39:00,49.0,32.6,30.22,South,189,2.0,4.0,53,0.05,,,0.12,Wunderground v.1.15,2013-01-19 19:39:00,
2013-01-19 14:44:00,49.1,33.6,30.22,WSW,243,2.0,4.0,55,0.00,,,0.12,Wunderground v.1.15,2013-01-19 19:44:00,
2013-01-19 14:49:00,49.1,33.2,30.21,SW,214,2.0,4.0,54,0.00,,,0.13,Wunderground v.1.15,2013-01-19 19:49:00,
2013-01-19 14:59:00,49.1,33.2,30.21,SW,224,2.0,2.0,54,0.00,,,0.13,Wunderground v.1.15,2013-01-19 19:59:00,
2013-01-19 15:04:00,49.4,33.0,30.21,SW,216,2.0,4.0,53,0.04,,,0.14,Wunderground v.1.15,2013-01-19 20:04:00,
2013-01-19 15:14:00,49.3,34.3,30.21,South,185,1.0,4.0,56,0.04,,,0.14,Wunderground v.1.15,2013-01-19 20:14:00,
2013-01-19 15:19:00,49.4,31.0,30.20,SW,226,2.0,4.0,49,0.04,,,0.14,Wunderground v.1.15,2013-01-19 20:19:00,
2013-01-19 15:29:00,49.9,31.0,30.20,SW,236,3.0,3.0,48,0.00,,,0.15,Wunderground v.1.15,2013-01-19 20:29:00,
2013-01-19 15:35:00,50.0,33.5,30.19,SW,233,2.0,4.0,53,0.00,,,0.15,Wunderground v.1.15,2013-01-19 20:35:00,
2013-01-19 15:44:00,49.7,32.8,30.19,SW,236,2.0,4.0,52,0.04,,,0.16,Wunderground v.1.15,2013-01-19 20:44:00,
2013-01-19 15:49:00,49.8,31.4,30.19,SW,219,3.0,4.0,49,0.04,,,0.16,Wunderground v.1.15,2013-01-19 20:49:00,
2013-01-19 15:54:00,50.0,30.5,30.19,SW,236,3.0,4.0,47,0.00,,,0.16,Wunderground v.1.15,2013-01-19 20:54:00,
2013-01-19 15:59:00,50.1,34.1,30.18,SSW,205,2.0,2.0,54,0.00,,,0.16,Wunderground v.1.15,2013-01-19 20:59:00,
2013-01-19 16:14:00,49.1,34.9,30.18,South,186,2.0,4.0,58,0.00,,,0.17,Wunderground v.1.15,2013-01-19 21:14:00,
2013-01-19 16:24:00,48.4,33.0,30.18,SSE,162,2.0,4.0,55,0.00,,,0.18,Wunderground v.1.15,2013-01-19 21:24:00,
2013-01-19 16:30:00,48.0,33.9,30.18,WSW,257,2.0,4.0,58,0.00,,,0.18,Wunderground v.1.15,2013-01-19 21:30:00,
2013-01-19 16:39:00,47.4,32.5,30.18,SW,214,2.0,4.0,56,0.00,,,0.18,Wunderground v.1.15,2013-01-19 21:39:00,
2013-01-19 16:49:00,46.7,34.0,30.18,WSW,240,1.0,4.0,61,0.00,,,0.18,Wunderground v.1.15,2013-01-19 21:49:00,
2013-01-19 16:54:00,46.3,31.9,30.18,SW,224,1.0,4.0,57,0.00,,,0.18,Wunderground v.1.15,2013-01-19 21:54:00,
2013-01-19 17:05:00,45.6,32.9,30.18,SW,224,1.0,4.0,61,0.00,,,0.19,Wunderground v.1.15,2013-01-19 22:05:00,
2013-01-19 17:14:00,44.9,32.7,30.18,ESE,111,0.0,4.0,62,0.00,,,0.19,Wunderground v.1.15,2013-01-19 22:14:00,
2013-01-19 17:19:00,44.5,32.7,30.17,South,181,0.0,4.0,63,0.00,,,0.19,Wunderground v.1.15,2013-01-19 22:19:00,
2013-01-19 17:25:00,44.1,32.7,30.17,South,181,0.0,4.0,64,0.00,,,0.19,Wunderground v.1.15,2013-01-19 22:25:00,
2013-01-19 17:34:00,43.1,32.9,30.17,South,187,0.0,4.0,67,0.00,,,0.19,Wunderground v.1.15,2013-01-19 22:34:00,
2013-01-19 17:44:00,42.1,33.4,30.17,South,187,0.0,4.0,71,0.00,,,0.19,Wunderground v.1.15,2013-01-19 22:44:00,
2013-01-19 17:49:00,41.6,33.9,30.17,South,187,0.0,4.0,74,0.00,,,0.19,Wunderground v.1.15,2013-01-19 22:49:00,
2013-01-19 17:59:00,40.7,34.4,30.17,South,187,0.0,4.0,78,0.00,,,0.19,Wunderground v.1.15,2013-01-19 22:59:00,
2013-01-19 18:05:00,40.2,34.5,30.17,South,187,0.0,4.0,80,0.00,,,0.19,Wunderground v.1.15,2013-01-19 23:05:00,
2013-01-19 18:14:00,39.4,34.1,30.17,South,187,0.0,4.0,81,0.00,,,0.19,Wunderground v.1.15,2013-01-19 23:14:00,
2013-01-19 18:19:00,39.0,34.0,30.17,South,188,0.0,4.0,82,0.00,,,0.20,Wunderground v.1.15,2013-01-19 23:19:00,
2013-01-19 18:24:00,38.7,34.0,30.17,South,188,0.0,4.0,83,0.00,,,0.20,Wunderground v.1.15,2013-01-19 23:24:00,
2013-01-19 18:30:00,38.4,33.7,30.17,South,188,0.0,0.0,83,0.00,,,0.20,Wunderground v.1.15,2013-01-19 23:30:00,
2013-01-19 18:39:00,37.7,33.6,30.17,South,188,0.0,0.0,85,0.00,,,0.20,Wunderground v.1.15,2013-01-19 23:39:00,
2013-01-19 18:44:00,37.4,33.6,30.17,South,188,0.0,0.0,86,0.00,,,0.20,Wunderground v.1.15,2013-01-19 23:44:00,
2013-01-19 18:49:00,37.2,33.4,30.17,South,188,0.0,0.0,86,0.00,,,0.20,Wunderground v.1.15,2013-01-19 23:49:00,
2013-01-19 18:59:00,36.7,32.9,30.17,South,188,0.0,0.0,86,0.00,,,0.20,Wunderground v.1.15,2013-01-19 23:59:00,
2013-01-19 19:04:00,36.4,32.6,30.17,South,188,0.0,0.0,86,0.00,,,0.20,Wunderground v.1.15,2013-01-20 00:04:00,
2013-01-19 19:09:00,36.2,32.7,30.17,South,188,0.0,0.0,87,0.00,,,0.20,Wunderground v.1.15,2013-01-20 00:09:00,
2013-01-19 19:14:00,35.9,32.7,30.18,South,188,0.0,0.0,88,0.00,,,0.20,Wunderground v.1.15,2013-01-20 00:14:00,
2013-01-19 19:24:00,35.5,32.9,30.18,South,188,1.0,1.0,90,0.00,,,0.20,Wunderground v.1.15,2013-01-20 00:24:00,
2013-01-19 19:29:00,35.3,32.7,30.18,SW,226,1.0,1.0,90,0.00,,,0.20,Wunderground v.1.15,2013-01-20 00:29:00,
2013-01-19 19:34:00,35.2,32.6,30.18,SW,226,1.0,1.0,90,0.00,,,0.20,Wunderground v.1.15,2013-01-20 00:34:00,
2013-01-19 19:39:00,35.0,32.6,30.18,SW,226,1.0,1.0,91,0.00,,,0.20,Wunderground v.1.15,2013-01-20 00:39:00,
2013-01-19 19:44:00,34.7,32.1,30.18,SW,226,1.0,1.0,90,0.00,,,0.20,Wunderground v.1.15,2013-01-20 00:44:00,
2013-01-19 19:49:00,34.4,31.8,30.18,SW,226,1.0,1.0,90,0.00,,,0.20,Wunderground v.1.15,2013-01-20 00:49:00,
2013-01-19 19:59:00,34.0,31.4,30.18,SW,226,0.0,2.0,90,0.00,,,0.20,Wunderground v.1.15,2013-01-20 00:59:00,
2013-01-19 20:04:00,33.8,31.2,30.18,SW,226,1.0,2.0,90,0.00,,,0.20,Wunderground v.1.15,2013-01-20 01:04:00,
2013-01-19 20:09:00,33.6,31.0,30.18,SW,226,1.0,1.0,90,0.00,,,0.20,Wunderground v.1.15,2013-01-20 01:09:00,
2013-01-19 20:15:00,33.5,30.9,30.18,SW,226,0.0,1.0,90,0.00,,,0.20,Wunderground v.1.15,2013-01-20 01:15:00,
2013-01-19 20:24:00,33.3,31.2,30.17,SW,226,0.0,0.0,92,0.00,,,0.20,Wunderground v.1.15,2013-01-20 01:24:00,
2013-01-19 20:29:00,33.2,31.1,30.17,SW,226,0.0,0.0,92,0.00,,,0.20,Wunderground v.1.15,2013-01-20 01:29:00,
2013-01-19 20:39:00,32.8,30.5,30.17,SW,224,0.0,0.0,91,0.00,,,0.20,Wunderground v.1.15,2013-01-20 01:39:00,
2013-01-19 20:44:00,32.7,30.4,30.17,SW,224,0.0,0.0,91,0.00,,,0.20,Wunderground v.1.15,2013-01-20 01:44:00,
2013-01-19 20:49:00,32.6,30.3,30.17,SW,224,0.0,0.0,91,0.00,,,0.20,Wunderground v.1.15,2013-01-20 01:49:00,
2013-01-19 20:59:00,32.3,30.2,30.17,SW,224,0.0,0.0,92,0.00,,,0.20,Wunderground v.1.15,2013-01-20 01:59:00,
2013-01-19 21:09:00,32.3,30.5,30.17,SW,224,0.0,1.0,93,0.00,,,0.20,Wunderground v.1.15,2013-01-20 02:09:00,
2013-01-19 21:19:00,32.4,30.9,30.15,SW,224,0.0,0.0,94,0.00,,,0.20,Wunderground v.1.15,2013-01-20 02:19:00,
2013-01-19 21:24:00,32.6,31.1,30.15,SW,224,0.0,0.0,94,0.00,,,0.20,Wunderground v.1.15,2013-01-20 02:24:00,
2013-01-19 21:35:00,32.6,31.1,30.15,SW,224,0.0,0.0,94,0.00,,,0.20,Wunderground v.1.15,2013-01-20 02:35:00,
2013-01-19 21:44:00,32.5,31.0,30.15,SW,224,0.0,0.0,94,0.00,,,0.20,Wunderground v.1.15,2013-01-20 02:44:00,
2013-01-19 21:49:00,32.6,31.1,30.14,SW,224,0.0,1.0,94,0.00,,,0.20,Wunderground v.1.15,2013-01-20 02:49:00,
2013-01-19 21:54:00,32.6,31.1,30.14,South,183,1.0,1.0,94,0.00,,,0.20,Wunderground v.1.15,2013-01-20 02:54:00,
2013-01-19 22:04:00,32.5,31.0,30.13,SW,224,1.0,1.0,94,0.00,,,0.20,Wunderground v.1.15,2013-01-20 03:04:00,
2013-01-19 22:09:00,32.4,30.9,30.13,SW,217,1.0,1.0,94,0.00,,,0.20,Wunderground v.1.15,2013-01-20 03:09:00,
2013-01-19 22:14:00,32.4,30.9,30.13,WSW,248,1.0,1.0,94,0.00,,,0.20,Wunderground v.1.15,2013-01-20 03:14:00,
2013-01-19 22:24:00,32.6,31.3,30.12,WSW,244,2.0,2.0,95,0.00,,,0.20,Wunderground v.1.15,2013-01-20 03:24:00,
2013-01-19 22:29:00,32.5,31.0,30.12,WSW,244,1.0,1.0,94,0.00,,,0.20,Wunderground v.1.15,2013-01-20 03:29:00,
2013-01-19 22:39:00,32.4,30.9,30.12,WSW,243,1.0,1.0,94,0.00,,,0.20,Wunderground v.1.15,2013-01-20 03:39:00,
2013-01-19 22:44:00,32.3,30.5,30.12,WSW,243,1.0,1.0,93,0.00,,,0.20,Wunderground v.1.15,2013-01-20 03:44:00,
2013-01-19 22:49:00,32.4,30.9,30.12,SW,224,1.0,2.0,94,0.00,,,0.20,Wunderground v.1.15,2013-01-20 03:49:00,
2013-01-19 22:54:00,32.7,31.2,30.12,WSW,252,2.0,2.0,94,0.00,,,0.20,Wunderground v.1.15,2013-01-20 03:54:00,
2013-01-19 23:04:00,33.5,31.7,30.11,SSW,195,1.0,2.0,93,0.00,,,0.20,Wunderground v.1.15,2013-01-20 04:04:00,
2013-01-19 23:09:00,34.0,32.2,30.11,SW,221,1.0,1.0,93,0.00,,,0.20,Wunderground v.1.15,2013-01-20 04:09:00,
2013-01-19 23:14:00,34.3,31.9,30.11,SSW,198,1.0,2.0,91,0.00,,,0.20,Wunderground v.1.15,2013-01-20 04:14:00,
2013-01-19 23:24:00,35.3,32.4,30.09,SW,222,1.0,2.0,89,0.00,,,0.20,Wunderground v.1.15,2013-01-20 04:24:00,
2013-01-19 23:29:00,35.6,32.1,30.09,SW,222,1.0,1.0,87,0.00,,,0.20,Wunderground v.1.15,2013-01-20 04:29:00,
2013-01-19 23:34:00,35.9,32.4,30.09,SW,222,1.0,1.0,87,0.00,,,0.20,Wunderground v.1.15,2013-01-20 04:34:00,
2013-01-19 23:39:00,36.1,32.9,30.09,SW,217,1.0,2.0,88,0.00,,,0.20,Wunderground v.1.15,2013-01-20 04:39:00,
2013-01-19 23:49:00,36.3,32.5,30.08,SW,217,1.0,1.0,86,0.00,,,0.20,Wunderground v.1.15,2013-01-20 04:49:00,
2013-01-19 23:54:00,36.4,32.6,30.08,SW,226,1.0,1.0,86,0.00,,,0.20,Wunderground v.1.15,2013-01-20 04:54:00,
2013-01-19 23:59:00,36.6,32.8,30.08,SW,226,1.0,2.0,86,0.00,,,0.20,Wunderground v.1.15,2013-01-20 04:59:00,